,,Stat6,,Stat2,,Stat8,,Stat9,,Stat10,,Wind1,,Wind1,
time,status,PA1M_AVG,status,PR1M_SUM,status,RH1M_AVG,status,SR1M_AVG,status,TA1M_AVG,status,W1dAve1m,status,W1sAve1m,
2004-07-23, 00:00:00,VALID,918.347,VALID,0,VALID,97.6859,VALID,0.0339617,VALID,20.1921,VALID,17,VALID,0.532885,
2004-07-23, 00:01:00,VALID,918.354,VALID,0,VALID,97.4647,VALID,0.0339617,VALID,20.1985,VALID,15,VALID,0.805246,
2004-07-23, 00:02:00,VALID,918.371,VALID,0,VALID,97.3223,VALID,0,VALID,20.2052,VALID,6,VALID,0.777539,
2004-07-23, 00:03:00,VALID,918.38,VALID,0,VALID,97.1824,VALID,0.0509425,VALID,20.1886,VALID,7,VALID,0.647321,
2004-07-23, 00:04:00,VALID,918.392,VALID,0,VALID,97.0997,VALID,0.0169808,VALID,20.198,VALID,13,VALID,0.484549,
2004-07-23, 00:05:00,VALID,918.389,VALID,0,VALID,97.0158,VALID,0,VALID,20.1886,VALID,13,VALID,0.582403,
2004-07-23, 00:06:00,VALID,918.38,VALID,0,VALID,97.0158,VALID,0,VALID,20.1921,VALID,13,VALID,0.565972,
2004-07-23, 00:07:00,VALID,918.387,VALID,0,VALID,96.689,VALID,0.0339617,VALID,20.1638,VALID,13,VALID,0.595796,
2004-07-23, 00:08:00,VALID,918.392,VALID,0,VALID,96.8403,VALID,-0.0509425,VALID,20.129,VALID,13,VALID,0.465216,
2004-07-23, 00:09:00,VALID,918.397,VALID,0,VALID,96.5911,VALID,-0.0679233,VALID,20.1037,VALID,13,VALID,0.530007,
2004-07-23, 00:10:00,VALID,918.389,VALID,0,VALID,96.5644,VALID,-0.0509425,VALID,20.0418,VALID,13,VALID,0.361979,
2004-07-23, 00:11:00,VALID,918.367,VALID,0,VALID,96.6419,VALID,-0.101885,VALID,19.9901,VALID,13,VALID,0.479802,
2004-07-23, 00:12:00,VALID,918.349,VALID,0,VALID,96.7869,VALID,-0.0509425,VALID,19.9578,VALID,13,VALID,0.312099,
2004-07-23, 00:13:00,VALID,918.323,VALID,0,VALID,96.9471,VALID,-0.0849042,VALID,19.9417,VALID,13,VALID,0,
2004-07-23, 00:14:00,VALID,918.309,VALID,0,VALID,97.1989,VALID,-0.0849042,VALID,19.9385,VALID,13,VALID,0.199886,
2004-07-23, 00:15:00,VALID,918.303,VALID,0,VALID,97.1735,VALID,-0.0679233,VALID,19.9387,VALID,13,VALID,0.0406977,
2004-07-23, 00:16:00,VALID,918.298,VALID,0,VALID,97.1188,VALID,-0.0679233,VALID,19.9226,VALID,13,VALID,0.0943216,
2004-07-23, 00:17:00,VALID,918.289,VALID,0,VALID,97.1061,VALID,-0.0339617,VALID,19.9131,VALID,13,VALID,0,
2004-07-23, 00:18:00,VALID,918.287,VALID,0,VALID,96.9865,VALID,-0.0849042,VALID,19.8903,VALID,13,VALID,0.291606,
2004-07-23, 00:19:00,VALID,918.287,VALID,0,VALID,96.7691,VALID,-0.0679233,VALID,19.8488,VALID,13,VALID,0.305489,
2004-07-23, 00:20:00,VALID,918.296,VALID,0,VALID,97.012,VALID,-0.101885,VALID,19.8187,VALID,13,VALID,0.181686,
2004-07-23, 00:21:00,VALID,918.304,VALID,0,VALID,97.1735,VALID,-0.0849042,VALID,19.81,VALID,13,VALID,0.163383,
2004-07-23, 00:22:00,VALID,918.299,VALID,0,VALID,97.1836,VALID,-0.0679233,VALID,19.7934,VALID,13,VALID,0.504972,
2004-07-23, 00:23:00,VALID,918.289,VALID,0,VALID,97.0717,VALID,-0.0509425,VALID,19.768,VALID,13,VALID,0.352289,
2004-07-23, 00:24:00,VALID,918.288,VALID,0,VALID,96.984,VALID,-0.101885,VALID,19.733,VALID,13,VALID,0.526414,
2004-07-23, 00:25:00,VALID,918.281,VALID,0,VALID,96.9382,VALID,-0.101885,VALID,19.6742,VALID,13,VALID,0.511191,
2004-07-23, 00:26:00,VALID,918.279,VALID,0,VALID,97.1163,VALID,-0.0849042,VALID,19.6324,VALID,16,VALID,0.423177,
2004-07-23, 00:27:00,VALID,918.266,VALID,0,VALID,97.4698,VALID,-0.101885,VALID,19.6289,VALID,28,VALID,0.629192,
2004-07-23, 00:28:00,VALID,918.257,VALID,0,VALID,97.7025,VALID,-0.101885,VALID,19.6324,VALID,22,VALID,0.461483,
2004-07-23, 00:29:00,VALID,918.252,VALID,0,VALID,97.8055,VALID,-0.0679233,VALID,19.6158,VALID,21,VALID,0.702592,
2004-07-23, 00:30:00,VALID,918.237,VALID,0,VALID,97.7559,VALID,-0.0679233,VALID,19.5999,VALID,22,VALID,0.71582,
2004-07-23, 00:31:00,VALID,918.233,VALID,0,VALID,97.8868,VALID,-0.0849042,VALID,19.5899,VALID,23,VALID,0.735937,
2004-07-23, 00:32:00,VALID,918.229,VALID,0,VALID,97.9822,VALID,-0.0849042,VALID,19.6036,VALID,20,VALID,0.838299,
2004-07-23, 00:33:00,VALID,918.237,VALID,0,VALID,98.0013,VALID,-0.0679233,VALID,19.584,VALID,32,VALID,0.69112,
2004-07-23, 00:34:00,VALID,918.244,VALID,0,VALID,97.719,VALID,-0.0509425,VALID,19.5455,VALID,14,VALID,0.704687,
2004-07-23, 00:35:00,VALID,918.251,VALID,0,VALID,97.9479,VALID,-0.0509425,VALID,19.5388,VALID,16,VALID,0.50705,
2004-07-23, 00:36:00,VALID,918.244,VALID,0,VALID,98.2582,VALID,-0.0849042,VALID,19.5517,VALID,16,VALID,0.441016,
2004-07-23, 00:37:00,VALID,918.246,VALID,0,VALID,98.4349,VALID,-0.0849042,VALID,19.574,VALID,17,VALID,0.686955,
2004-07-23, 00:38:00,VALID,918.229,VALID,0,VALID,98.5633,VALID,-0.0849042,VALID,19.6004,VALID,17,VALID,0.682292,
2004-07-23, 00:39:00,VALID,918.217,VALID,0,VALID,98.8584,VALID,-0.0679233,VALID,19.6814,VALID,18,VALID,0.470313,
2004-07-23, 00:40:00,VALID,918.199,VALID,0,VALID,98.6346,VALID,-0.0339617,VALID,19.6672,VALID,19,VALID,0.566501,
2004-07-23, 00:41:00,VALID,918.183,VALID,0,VALID,98.5875,VALID,-0.0849042,VALID,19.6846,VALID,20,VALID,0.399926,
2004-07-23, 00:42:00,VALID,918.145,VALID,0,VALID,98.5964,VALID,-0.0679233,VALID,19.7072,VALID,20,VALID,0.282493,
2004-07-23, 00:43:00,VALID,918.118,VALID,0,VALID,98.5239,VALID,-0.0679233,VALID,19.7037,VALID,20,VALID,0.401634,
2004-07-23, 00:44:00,VALID,918.097,VALID,0,VALID,98.426,VALID,-0.101885,VALID,19.6871,VALID,21,VALID,0.44093,
2004-07-23, 00:45:00,VALID,918.071,VALID,0,VALID,98.1157,VALID,-0.0849042,VALID,19.6684,VALID,21,VALID,0.330031,
2004-07-23, 00:46:00,VALID,918.073,VALID,0,VALID,97.939,VALID,-0.101885,VALID,19.6292,VALID,21,VALID,0.290365,
2004-07-23, 00:47:00,VALID,918.063,VALID,0,VALID,98.1246,VALID,-0.101885,VALID,19.6197,VALID,23,VALID,0.328993,
2004-07-23, 00:48:00,VALID,918.073,VALID,0,VALID,97.8118,VALID,-0.0509425,VALID,19.6036,VALID,23,VALID,0.340588,
2004-07-23, 00:49:00,VALID,918.061,VALID,0,VALID,97.56,VALID,-0.0339617,VALID,19.5616,VALID,23,VALID,0.528201,
2004-07-23, 00:50:00,VALID,918.061,VALID,0,VALID,97.3121,VALID,-0.0169808,VALID,19.5032,VALID,23,VALID,0.414453,
2004-07-23, 00:51:00,VALID,918.072,VALID,0,VALID,97.5664,VALID,-0.101885,VALID,19.4973,VALID,23,VALID,0.243963,
2004-07-23, 00:52:00,VALID,918.089,VALID,0,VALID,97.8474,VALID,-0.101885,VALID,19.5231,VALID,23,VALID,0.0529297,
2004-07-23, 00:53:00,VALID,918.086,VALID,0,VALID,98.1946,VALID,-0.0509425,VALID,19.5554,VALID,23,VALID,0.0977515,
2004-07-23, 00:54:00,VALID,918.092,VALID,0,VALID,98.4578,VALID,-0.0849042,VALID,19.6009,VALID,23,VALID,0.148438,
2004-07-23, 00:55:00,VALID,918.092,VALID,0,VALID,98.4502,VALID,-0.0509425,VALID,19.6396,VALID,23,VALID,0.118229,
2004-07-23, 00:56:00,VALID,918.068,VALID,0,VALID,98.3421,VALID,-0.0509425,VALID,19.6587,VALID,23,VALID,0,
2004-07-23, 00:57:00,VALID,918.053,VALID,0,VALID,98.2302,VALID,-0.0849042,VALID,19.6717,VALID,23,VALID,0.000177557,
2004-07-23, 00:58:00,VALID,918.036,VALID,0,VALID,98.0293,VALID,-0.0339617,VALID,19.6908,VALID,23,VALID,0.169207,
2004-07-23, 00:59:00,VALID,918.045,VALID,0,VALID,97.9174,VALID,-0.0849042,VALID,19.6811,VALID,23,VALID,0.132431,
2004-07-23, 01:00:00,VALID,918.032,VALID,0,VALID,97.9148,VALID,-0.0339617,VALID,19.6776,VALID,23,VALID,0.259673,
2004-07-23, 01:01:00,VALID,918.029,VALID,0,VALID,98.0204,VALID,-0.0679233,VALID,19.6881,VALID,23,VALID,0.153472,
2004-07-23, 01:02:00,VALID,918.012,VALID,0,VALID,97.883,VALID,-0.0339617,VALID,19.6742,VALID,28,VALID,0.448709,
2004-07-23, 01:03:00,VALID,917.989,VALID,0,VALID,97.5791,VALID,-0.0849042,VALID,19.6558,VALID,54,VALID,0.410065,
2004-07-23, 01:04:00,VALID,917.979,VALID,0,VALID,96.7043,VALID,-0.0509425,VALID,19.5552,VALID,52,VALID,0.505451,
2004-07-23, 01:05:00,VALID,917.98,VALID,0,VALID,96.2681,VALID,-0.101885,VALID,19.4426,VALID,47,VALID,0.503018,
2004-07-23, 01:06:00,VALID,917.988,VALID,0,VALID,96.9878,VALID,-0.101885,VALID,19.4131,VALID,34,VALID,0.33724,
2004-07-23, 01:07:00,VALID,917.978,VALID,0,VALID,97.6808,VALID,-0.0849042,VALID,19.4782,VALID,23,VALID,0.568266,
2004-07-23, 01:08:00,VALID,917.974,VALID,0,VALID,97.7584,VALID,-0.0339617,VALID,19.5296,VALID,18,VALID,0.546113,
2004-07-23, 01:09:00,VALID,917.973,VALID,0,VALID,97.6656,VALID,-0.0679233,VALID,19.549,VALID,353,VALID,0.724414,
2004-07-23, 01:10:00,VALID,917.96,VALID,0,VALID,98.1958,VALID,-0.0849042,VALID,19.6361,VALID,338,VALID,0.683222,
2004-07-23, 01:11:00,VALID,917.948,VALID,0,VALID,98.6498,VALID,-0.0849042,VALID,19.743,VALID,341,VALID,0.828697,
2004-07-23, 01:12:00,VALID,917.93,VALID,0,VALID,98.5583,VALID,-0.101885,VALID,19.8008,VALID,345,VALID,0.753299,
2004-07-23, 01:13:00,VALID,917.915,VALID,0,VALID,98.0661,VALID,-0.0679233,VALID,19.814,VALID,349,VALID,0.838086,
2004-07-23, 01:14:00,VALID,917.888,VALID,0,VALID,97.8627,VALID,-0.0849042,VALID,19.8269,VALID,6,VALID,0.857013,
2004-07-23, 01:15:00,VALID,917.89,VALID,0,VALID,97.1175,VALID,-0.0849042,VALID,19.8013,VALID,11,VALID,0.71875,
2004-07-23, 01:16:00,VALID,917.879,VALID,0,VALID,96.6725,VALID,-0.101885,VALID,19.7335,VALID,11,VALID,0.445117,
2004-07-23, 01:17:00,VALID,917.888,VALID,0,VALID,97.2663,VALID,-0.0849042,VALID,19.7273,VALID,351,VALID,0.928544,
2004-07-23, 01:18:00,VALID,917.889,VALID,0,VALID,97.6656,VALID,-0.0849042,VALID,19.7683,VALID,343,VALID,0.649368,
2004-07-23, 01:19:00,VALID,917.88,VALID,0,VALID,97.3617,VALID,-0.0849042,VALID,19.7591,VALID,347,VALID,0.389101,
2004-07-23, 01:20:00,VALID,917.86,VALID,0,VALID,97.1913,VALID,-0.0169808,VALID,19.7494,VALID,347,VALID,0.212536,
2004-07-23, 01:21:00,VALID,917.856,VALID,0,VALID,96.8721,VALID,-0.101885,VALID,19.6973,VALID,347,VALID,0.124238,
2004-07-23, 01:22:00,VALID,917.854,VALID,0,VALID,96.7017,VALID,-0.0509425,VALID,19.6456,VALID,347,VALID,0.062128,
2004-07-23, 01:23:00,VALID,917.84,VALID,0,VALID,96.8734,VALID,0.0849042,VALID,19.6312,VALID,347,VALID,0.236506,
2004-07-23, 01:24:00,VALID,917.836,VALID,0,VALID,97.5867,VALID,0.0169808,VALID,19.6794,VALID,347,VALID,0.0383681,
2004-07-23, 01:25:00,VALID,917.833,VALID,0,VALID,97.7991,VALID,0.0849042,VALID,19.7184,VALID,347,VALID,0.143229,
2004-07-23, 01:26:00,VALID,917.825,VALID,0,VALID,97.8856,VALID,0.0339617,VALID,19.7184,VALID,347,VALID,0.317894,
2004-07-23, 01:27:00,VALID,917.842,VALID,0,VALID,97.7991,VALID,0.0509425,VALID,19.7124,VALID,347,VALID,0.110863,
2004-07-23, 01:28:00,VALID,917.841,VALID,0,VALID,97.7635,VALID,0.0169808,VALID,19.6702,VALID,347,VALID,0.0266768,
2004-07-23, 01:29:00,VALID,917.837,VALID,0,VALID,97.8805,VALID,0.0339617,VALID,19.654,VALID,347,VALID,0,
2004-07-23, 01:30:00,VALID,917.833,VALID,0,VALID,97.9352,VALID,0.0679233,VALID,19.6374,VALID,347,VALID,0,
2004-07-23, 01:31:00,VALID,917.82,VALID,0,VALID,97.9364,VALID,0.0509425,VALID,19.6215,VALID,347,VALID,0,
2004-07-23, 01:32:00,VALID,917.81,VALID,0,VALID,97.8182,VALID,0.0509425,VALID,19.6056,VALID,347,VALID,0,
2004-07-23, 01:33:00,VALID,917.789,VALID,0,VALID,97.6961,VALID,0.0509425,VALID,19.5765,VALID,347,VALID,0,
2004-07-23, 01:34:00,VALID,917.786,VALID,0,VALID,97.8093,VALID,0.0679233,VALID,19.5567,VALID,347,VALID,0,
2004-07-23, 01:35:00,VALID,917.762,VALID,0,VALID,97.4558,VALID,0.0849042,VALID,19.5152,VALID,347,VALID,0.0524306,
2004-07-23, 01:36:00,VALID,917.739,VALID,0,VALID,97.2968,VALID,0.0509425,VALID,19.4665,VALID,347,VALID,0,
2004-07-23, 01:37:00,VALID,917.722,VALID,0,VALID,95.8612,VALID,0.0679233,VALID,19.3055,VALID,347,VALID,0.240663,
2004-07-23, 01:38:00,VALID,917.704,VALID,0,VALID,96.2058,VALID,0.0339617,VALID,19.1861,VALID,347,VALID,0.205611,
2004-07-23, 01:39:00,VALID,917.692,VALID,0,VALID,97.1264,VALID,0.0679233,VALID,19.1635,VALID,347,VALID,0.0412109,
2004-07-23, 01:40:00,VALID,917.683,VALID,0,VALID,97.6694,VALID,0.0849042,VALID,19.1856,VALID,347,VALID,0.0806021,
2004-07-23, 01:41:00,VALID,917.674,VALID,0,VALID,97.8309,VALID,0.0339617,VALID,19.1921,VALID,347,VALID,0.00152853,
2004-07-23, 01:42:00,VALID,917.675,VALID,0,VALID,98.3624,VALID,0.0169808,VALID,19.2119,VALID,348,VALID,0.293679,
2004-07-23, 01:43:00,VALID,917.663,VALID,0,VALID,98.9092,VALID,0.0679233,VALID,19.2762,VALID,349,VALID,0.272347,
2004-07-23, 01:44:00,VALID,917.654,VALID,0,VALID,98.9741,VALID,0.0339617,VALID,19.3055,VALID,349,VALID,0.0513393,
2004-07-23, 01:45:00,VALID,917.622,VALID,0,VALID,98.9525,VALID,0.0509425,VALID,19.3018,VALID,349,VALID,0,
2004-07-23, 01:46:00,VALID,917.6,VALID,0,VALID,99.0745,VALID,0.0679233,VALID,19.3217,VALID,349,VALID,0,
2004-07-23, 01:47:00,VALID,917.588,VALID,0,VALID,98.8278,VALID,0.0509425,VALID,19.3185,VALID,349,VALID,0,
2004-07-23, 01:48:00,VALID,917.574,VALID,0,VALID,98.4298,VALID,0.0169808,VALID,19.2569,VALID,349,VALID,0.0483994,
2004-07-23, 01:49:00,VALID,917.565,VALID,0,VALID,96.942,VALID,0,VALID,19.0736,VALID,349,VALID,0.32463,
2004-07-23, 01:50:00,VALID,917.544,VALID,0,VALID,97.2867,VALID,0.0169808,VALID,18.9866,VALID,349,VALID,0.172408,
2004-07-23, 01:51:00,VALID,917.536,VALID,0,VALID,97.4405,VALID,-0.0679233,VALID,18.9324,VALID,349,VALID,0.414426,
2004-07-23, 01:52:00,VALID,917.534,VALID,0,VALID,97.4075,VALID,-0.101885,VALID,18.8681,VALID,358,VALID,0.512695,
2004-07-23, 01:53:00,VALID,917.517,VALID,0,VALID,97.4532,VALID,-0.101885,VALID,18.7842,VALID,359,VALID,0.527616,
2004-07-23, 01:54:00,VALID,917.514,VALID,0,VALID,97.8029,VALID,-0.0849042,VALID,18.739,VALID,359,VALID,0.466751,
2004-07-23, 01:55:00,VALID,917.479,VALID,0,VALID,98.2137,VALID,-0.101885,VALID,18.7487,VALID,359,VALID,0.497332,
2004-07-23, 01:56:00,VALID,917.454,VALID,0,VALID,98.1043,VALID,-0.0679233,VALID,18.7201,VALID,360,VALID,0.61772,
2004-07-23, 01:57:00,VALID,917.416,VALID,0,VALID,98.2225,VALID,-0.0679233,VALID,18.6649,VALID,360,VALID,0.789463,
2004-07-23, 01:58:00,VALID,917.386,VALID,0,VALID,99.1864,VALID,-0.0849042,VALID,18.7623,VALID,360,VALID,0.783854,
2004-07-23, 01:59:00,VALID,917.378,VALID,0,VALID,99.292,VALID,-0.0339617,VALID,18.7715,VALID,360,VALID,0.768864,
2004-07-23, 02:00:00,VALID,917.377,VALID,0,VALID,99.5527,VALID,-0.0509425,VALID,18.7839,VALID,360,VALID,0.779535,
2004-07-23, 02:01:00,VALID,917.386,VALID,0,VALID,99.984,VALID,-0.0679233,VALID,18.9004,VALID,360,VALID,0.534157,
2004-07-23, 02:02:00,VALID,917.396,VALID,0,VALID,100,VALID,-0.0169808,VALID,18.9684,VALID,360,VALID,0.479539,
2004-07-23, 02:03:00,VALID,917.402,VALID,0,VALID,100,VALID,-0.0679233,VALID,18.9844,VALID,360,VALID,0.281994,
2004-07-23, 02:04:00,VALID,917.402,VALID,0,VALID,99.983,VALID,-0.0509425,VALID,19.0072,VALID,360,VALID,0.189787,
2004-07-23, 02:05:00,VALID,917.41,VALID,0,VALID,99.9392,VALID,-0.0849042,VALID,19.0238,VALID,360,VALID,0.0113467,
2004-07-23, 02:06:00,VALID,917.416,VALID,0,VALID,99.4611,VALID,-0.118866,VALID,18.9655,VALID,360,VALID,0.304324,
2004-07-23, 02:07:00,VALID,917.426,VALID,0,VALID,99.1089,VALID,-0.101885,VALID,18.8778,VALID,3,VALID,0.60883,
2004-07-23, 02:08:00,VALID,917.447,VALID,0,VALID,99.1559,VALID,-0.0509425,VALID,18.8425,VALID,13,VALID,0.765039,
2004-07-23, 02:09:00,VALID,917.455,VALID,0,VALID,99.2805,VALID,-0.0849042,VALID,18.8269,VALID,13,VALID,0.828125,
2004-07-23, 02:10:00,VALID,917.441,VALID,0,VALID,99.9387,VALID,-0.0849042,VALID,18.9133,VALID,16,VALID,0.833841,
2004-07-23, 02:11:00,VALID,917.448,VALID,0,VALID,99.7826,VALID,-0.101885,VALID,18.92,VALID,21,VALID,0.706214,
2004-07-23, 02:12:00,VALID,917.458,VALID,0,VALID,99.5603,VALID,-0.0849042,VALID,18.8393,VALID,21,VALID,0.612723,
2004-07-23, 02:13:00,VALID,917.478,VALID,0,VALID,99.517,VALID,-0.0679233,VALID,18.8172,VALID,21,VALID,0.655895,
2004-07-23, 02:14:00,VALID,917.489,VALID,0,VALID,99.4789,VALID,-0.0849042,VALID,18.7809,VALID,21,VALID,0.650868,
2004-07-23, 02:15:00,VALID,917.498,VALID,0,VALID,99.6226,VALID,-0.0849042,VALID,18.7618,VALID,21,VALID,0.656795,
2004-07-23, 02:16:00,VALID,917.501,VALID,0,VALID,99.8095,VALID,-0.0679233,VALID,18.8008,VALID,22,VALID,0.628005,
2004-07-23, 02:17:00,VALID,917.493,VALID,0,VALID,99.7777,VALID,-0.0339617,VALID,18.7911,VALID,23,VALID,0.535633,
2004-07-23, 02:18:00,VALID,917.456,VALID,0,VALID,99.9888,VALID,-0.0679233,VALID,18.8266,VALID,29,VALID,0.75918,
2004-07-23, 02:19:00,VALID,917.427,VALID,0,VALID,99.9964,VALID,-0.0339617,VALID,18.8843,VALID,28,VALID,1.19749,
2004-07-23, 02:20:00,VALID,917.396,VALID,0,VALID,100,VALID,-0.0679233,VALID,18.9592,VALID,18,VALID,0.955382,
2004-07-23, 02:21:00,VALID,917.395,VALID,0,VALID,100,VALID,-0.0509425,VALID,18.9873,VALID,16,VALID,0.644345,
2004-07-23, 02:22:00,VALID,917.391,VALID,0,VALID,100,VALID,-0.0849042,VALID,19.0328,VALID,351,VALID,0.46439,
2004-07-23, 02:23:00,VALID,917.391,VALID,0,VALID,100,VALID,-0.0509425,VALID,19.075,VALID,346,VALID,0.440044,
2004-07-23, 02:24:00,VALID,917.386,VALID,0,VALID,100,VALID,-0.0679233,VALID,19.0949,VALID,347,VALID,0.455305,
2004-07-23, 02:25:00,VALID,917.37,VALID,0,VALID,100,VALID,-0.0849042,VALID,19.1304,VALID,347,VALID,0.446733,
2004-07-23, 02:26:00,VALID,917.382,VALID,0,VALID,100,VALID,-0.101885,VALID,19.0944,VALID,347,VALID,0.303757,
2004-07-23, 02:27:00,VALID,917.367,VALID,0,VALID,99.9313,VALID,-0.0849042,VALID,19.0593,VALID,352,VALID,0.261242,
2004-07-23, 02:28:00,VALID,917.38,VALID,0,VALID,100,VALID,-0.0849042,VALID,19.0722,VALID,24,VALID,0.44371,
2004-07-23, 02:29:00,VALID,917.388,VALID,0,VALID,99.9977,VALID,-0.0339617,VALID,19.0782,VALID,24,VALID,0.237153,
2004-07-23, 02:30:00,VALID,917.404,VALID,0,VALID,99.6836,VALID,-0.0849042,VALID,19.0628,VALID,24,VALID,0.0362216,
2004-07-23, 02:31:00,VALID,917.395,VALID,0,VALID,99.3886,VALID,-0.0849042,VALID,18.9687,VALID,24,VALID,0.163336,
2004-07-23, 02:32:00,VALID,917.381,VALID,0,VALID,99.4293,VALID,-0.0679233,VALID,18.9173,VALID,24,VALID,0.257267,
2004-07-23, 02:33:00,VALID,917.353,VALID,0,VALID,99.6239,VALID,-0.0679233,VALID,18.911,VALID,27,VALID,0.315407,
2004-07-23, 02:34:00,VALID,917.344,VALID,0,VALID,99.5476,VALID,-0.0849042,VALID,18.8976,VALID,39,VALID,0.245898,
2004-07-23, 02:35:00,VALID,917.345,VALID,0,VALID,99.3339,VALID,-0.0679233,VALID,18.8363,VALID,39,VALID,0.276228,
2004-07-23, 02:36:00,VALID,917.341,VALID,0,VALID,99.5196,VALID,-0.0679233,VALID,18.8109,VALID,39,VALID,0.0949219,
2004-07-23, 02:37:00,VALID,917.352,VALID,0,VALID,99.6836,VALID,-0.0339617,VALID,18.8003,VALID,39,VALID,0.000558036,
2004-07-23, 02:38:01,VALID,917.353,VALID,0,VALID,99.7281,VALID,0.0849042,VALID,18.7959,VALID,39,VALID,0.150868,
2004-07-23, 02:39:00,VALID,917.345,VALID,0,VALID,99.7472,VALID,0.0339617,VALID,18.7931,VALID,39,VALID,0.183498,
2004-07-23, 02:40:00,VALID,917.337,VALID,0,VALID,99.9652,VALID,0.0679233,VALID,18.8118,VALID,39,VALID,0.10174,
2004-07-23, 02:41:00,VALID,917.331,VALID,0,VALID,100,VALID,0.0339617,VALID,18.848,VALID,39,VALID,0.000173611,
2004-07-23, 02:42:00,VALID,917.328,VALID,0,VALID,99.973,VALID,0.0679233,VALID,18.8513,VALID,39,VALID,0.121701,
2004-07-23, 02:43:00,VALID,917.35,VALID,0,VALID,99.8451,VALID,0.0679233,VALID,18.819,VALID,39,VALID,0.00625,
2004-07-23, 02:44:00,VALID,917.352,VALID,0,VALID,99.6289,VALID,0.0509425,VALID,18.7574,VALID,354,VALID,0.315225,
2004-07-23, 02:45:01,VALID,917.349,VALID,0,VALID,100,VALID,0.0339617,VALID,18.8928,VALID,299,VALID,0.415923,
2004-07-23, 02:46:00,VALID,917.349,VALID,0,VALID,99.4802,VALID,0,VALID,18.777,VALID,295,VALID,0.111049,
2004-07-23, 02:47:01,VALID,917.342,VALID,0,VALID,99.498,VALID,0.0339617,VALID,18.7286,VALID,296,VALID,0.176054,
2004-07-23, 02:48:01,VALID,917.34,VALID,0,VALID,98.9537,VALID,0.0679233,VALID,18.6124,VALID,345,VALID,0.511446,
2004-07-23, 02:49:00,VALID,917.342,VALID,0,VALID,99.0961,VALID,0.0679233,VALID,18.554,VALID,18,VALID,0.442116,
2004-07-23, 02:50:00,VALID,917.354,VALID,0,VALID,99.723,VALID,0.0339617,VALID,18.6313,VALID,18,VALID,0.502907,
2004-07-23, 02:51:01,VALID,917.366,VALID,0,VALID,100,VALID,0.0339617,VALID,18.741,VALID,18,VALID,0.248698,
2004-07-23, 02:52:00,VALID,917.359,VALID,0,VALID,100,VALID,0.0679233,VALID,18.7867,VALID,18,VALID,0.143111,
2004-07-23, 02:53:00,VALID,917.34,VALID,0,VALID,100,VALID,0.0339617,VALID,18.845,VALID,18,VALID,0,
2004-07-23, 02:54:00,VALID,917.329,VALID,0,VALID,99.9977,VALID,0.0509425,VALID,18.8513,VALID,18,VALID,0,
2004-07-23, 02:55:00,VALID,917.311,VALID,0,VALID,99.9939,VALID,0.0849042,VALID,18.8674,VALID,18,VALID,0,
2004-07-23, 02:56:00,VALID,917.278,VALID,0,VALID,99.9916,VALID,0.0679233,VALID,18.8861,VALID,18,VALID,0,
2004-07-23, 02:57:00,VALID,917.271,VALID,0,VALID,99.9672,VALID,0.0509425,VALID,18.9188,VALID,18,VALID,0,
2004-07-23, 02:58:01,VALID,917.257,VALID,0,VALID,99.8489,VALID,0.0849042,VALID,18.9317,VALID,18,VALID,0,
2004-07-23, 02:59:00,VALID,917.253,VALID,0,VALID,99.587,VALID,0.0339617,VALID,18.9258,VALID,18,VALID,0,
2004-07-23, 03:00:01,VALID,917.251,VALID,0,VALID,99.3314,VALID,0.0509425,VALID,18.8868,VALID,18,VALID,0,
2004-07-23, 03:01:00,VALID,917.242,VALID,0,VALID,99.1356,VALID,0.0509425,VALID,18.848,VALID,18,VALID,0,
2004-07-23, 03:02:01,VALID,917.235,VALID,0,VALID,98.8151,VALID,0.0339617,VALID,18.7828,VALID,18,VALID,0,
2004-07-23, 03:03:00,VALID,917.235,VALID,0,VALID,98.5926,VALID,0.0339617,VALID,18.7159,VALID,18,VALID,0,
2004-07-23, 03:04:01,VALID,917.218,VALID,0,VALID,98.8304,VALID,0.0169808,VALID,18.7293,VALID,18,VALID,0,
2004-07-23, 03:05:00,VALID,917.215,VALID,0,VALID,98.7375,VALID,0.0339617,VALID,18.6995,VALID,18,VALID,0,
2004-07-23, 03:06:00,VALID,917.214,VALID,0,VALID,98.7426,VALID,0.0169808,VALID,18.6742,VALID,18,VALID,0.00218023,
2004-07-23, 03:07:00,VALID,917.223,VALID,0,VALID,98.8787,VALID,0,VALID,18.6546,VALID,18,VALID,0.288881,
2004-07-23, 03:08:01,VALID,917.206,VALID,0,VALID,99.016,VALID,-0.101885,VALID,18.6304,VALID,18,VALID,0.389648,
2004-07-23, 03:09:00,VALID,917.189,VALID,0,VALID,99.311,VALID,-0.101885,VALID,18.6398,VALID,13,VALID,0.422461,
2004-07-23, 03:10:00,VALID,917.152,VALID,0,VALID,99.3327,VALID,-0.118866,VALID,18.656,VALID,356,VALID,0.435268,
2004-07-23, 03:11:00,VALID,917.121,VALID,0,VALID,99.1699,VALID,-0.101885,VALID,18.6401,VALID,348,VALID,0.408008,
2004-07-23, 03:12:00,VALID,917.091,VALID,0,VALID,98.9512,VALID,-0.101885,VALID,18.6177,VALID,348,VALID,0.674762,
2004-07-23, 03:13:00,VALID,917.062,VALID,0,VALID,98.4349,VALID,-0.118866,VALID,18.5144,VALID,348,VALID,0.613948,
2004-07-23, 03:14:01,VALID,917.053,VALID,0,VALID,99.0326,VALID,-0.0849042,VALID,18.5397,VALID,347,VALID,0.656771,
2004-07-23, 03:15:00,VALID,917.028,VALID,0,VALID,99.5425,VALID,-0.101885,VALID,18.653,VALID,329,VALID,0.409446,
2004-07-23, 03:16:01,VALID,917,VALID,0,VALID,99.5158,VALID,-0.101885,VALID,18.6917,VALID,307,VALID,0.457589,
2004-07-23, 03:17:00,VALID,916.96,VALID,0,VALID,99.5819,VALID,-0.0849042,VALID,18.7496,VALID,297,VALID,0.555959,
2004-07-23, 03:18:00,VALID,916.913,VALID,0,VALID,99.6061,VALID,-0.0509425,VALID,18.8142,VALID,294,VALID,0.297805,
2004-07-23, 03:19:01,VALID,916.882,VALID,0,VALID,99.3594,VALID,-0.0679233,VALID,18.837,VALID,294,VALID,0.132813,
2004-07-23, 03:20:00,VALID,916.878,VALID,0,VALID,98.351,VALID,-0.0679233,VALID,18.7083,VALID,294,VALID,0.143293,
2004-07-23, 03:21:00,VALID,916.861,VALID,0,VALID,98.1272,VALID,-0.0509425,VALID,18.6011,VALID,307,VALID,0.363281,
2004-07-23, 03:22:00,VALID,916.873,VALID,0,VALID,98.5061,VALID,-0.0849042,VALID,18.5658,VALID,344,VALID,0.340843,
2004-07-23, 03:23:01,VALID,916.864,VALID,0,VALID,98.7248,VALID,-0.0849042,VALID,18.5531,VALID,344,VALID,0.22526,
2004-07-23, 03:24:00,VALID,916.854,VALID,0,VALID,98.8113,VALID,-0.0849042,VALID,18.5238,VALID,343,VALID,0.186928,
2004-07-23, 03:25:00,VALID,916.845,VALID,0,VALID,98.8316,VALID,-0.101885,VALID,18.4885,VALID,342,VALID,0.234375,
2004-07-23, 03:26:00,VALID,916.831,VALID,0,VALID,98.9614,VALID,-0.0679233,VALID,18.4982,VALID,342,VALID,0.037157,
2004-07-23, 03:27:00,VALID,916.849,VALID,0,VALID,98.7096,VALID,-0.101885,VALID,18.42,VALID,342,VALID,0.157552,
2004-07-23, 03:28:00,VALID,916.856,VALID,0,VALID,98.9232,VALID,-0.0849042,VALID,18.4111,VALID,342,VALID,0,
2004-07-23, 03:29:00,VALID,916.869,VALID,0,VALID,98.5583,VALID,-0.101885,VALID,18.3398,VALID,342,VALID,0.0610978,
2004-07-23, 03:30:00,VALID,916.871,VALID,0,VALID,98.4196,VALID,-0.0679233,VALID,18.2621,VALID,342,VALID,0.260901,
2004-07-23, 03:31:00,VALID,916.874,VALID,0,VALID,98.365,VALID,-0.0849042,VALID,18.2042,VALID,342,VALID,0.341747,